Regional Weather Roundup
Issued by NWS Cleveland, OH

Home | Current Version | Previous Version | Graphics & Text | Print | Product List | Glossary On
Versions: 1 2 3 4 5 6 7 8 9 10 11 12 13 14 15 16 17 18 19 20 21 22 23 24 25 26 27 28 29 30 31 32 33 34 35 36 37 38 39 40 41 42 43 44 45 46 47 48 49 50
000
ASUS41 KCLE 051810
RWRCLE
OHIO REGIONAL WEATHER ROUNDUP
NATIONAL WEATHER SERVICE WILMINGTON, OH
200 PM EDT SUN JUL 05 2015

NOTE: "FAIR" INDICATES FEW OR NO CLOUDS BELOW 12,000 FEET WITH NO
SIGNIFICANT WEATHER AND/OR OBSTRUCTIONS TO VISIBILITY.

OHZ001>008-015>018-024>027-034-035-043-044-051900-
   NORTHWEST OHIO

CITY           SKY/WX    TMP DP  RH WIND       PRES   REMARKS
DEFIANCE       MOSUNNY   81  59  47 CALM      30.11F
FINDLAY        PTSUNNY   79  56  45 CALM      30.11F
TOLEDO EXPRESS MOSUNNY   81  55  40 NE5       30.11F
TOLEDO EXEC    MOSUNNY   80  53  39 E6        30.12F
LIMA           CLOUDY    77  58  51 CALM      30.12F
$$

OHZ009>014-019>023-028>033-038-089-051900-
   NORTHEAST OHIO

CITY           SKY/WX    TMP DP  RH WIND       PRES   REMARKS
CLE-HOPKINS    MOSUNNY   79  52  38 SE5       30.14F
CLE-LAKEFRONT  MOSUNNY   75  62  64 N9        30.11F
CUY CO. ARPT   MOSUNNY   81  57  44 S9        30.14F
LORAIN-ELYRIA  PTSUNNY   77  53  43 SE5       30.13F
ASHTABULA      MOSUNNY   79  58  48 VRB5      30.15F
AKRON-CANTON   PTSUNNY   78  56  46 SE6       30.14F
WOOSTER        MOSUNNY   78  59  51 CALM      30.14F
MANSFIELD      MOSUNNY   77  55  46 VRB3      30.13F
YOUNGSTOWN     MOSUNNY   78  52  40 E7        30.15F
$$

OHZ042-051>053-060>062-070>072-077>081-051900-
  SOUTHWEST OHIO

CITY           SKY/WX    TMP DP  RH WIND       PRES   REMARKS
CINC-COVINGTON CLOUDY    79  59  50 NE8       30.09F
CINC-LUNKEN    CLOUDY    77  63  61 N7        30.09F
HAMILTON       CLOUDY    78  62  57 E7        30.11S
DAYTON         CLOUDY    78  60  53 NE5       30.12F
WRIGHT-PAT AFB CLOUDY    77  57  48 NE3       30.11S
DAYTON GENERAL CLOUDY    76  60  57 CALM      30.10F
WILMINGTON     CLOUDY    76  60  57 VRB5      30.10F
$$

OHZ036-037-039>041-045>050-054>059-063>069-073>076-082>088-051900-
  CENTRAL AND SOUTHEAST OHIO

CITY           SKY/WX    TMP DP  RH WIND       PRES   REMARKS
COLUMBUS       CLOUDY    77  59  53 SE6       30.10F
OSU AIRPORT    PTSUNNY   79  59  50 VRB3      30.11F
BOLTON FIELD   SUNNY     77  61  57 E3        30.11F
RICKENBACK AFB CLOUDY    78  61  57 E7        30.10F
NEWARK         PTSUNNY   78  62  57 VRB3      30.10F
MARION         PTSUNNY   78  57  48 E6        30.12F
LANCASTER      CLOUDY    79  63  57 NE6       30.10F
ZANESVILLE     PTSUNNY   79  60  52 S6        30.11F
NEW PHILLY     MOSUNNY   80  63  55 N8        30.13F
$$


USA.gov is the U.S. government's official web portal to all federal, state and local government web resources and services.